Weather reports worldwide

Advertisment
Socoa, France (7600): temperature & dewpoint: 19.08.2019 07:00:00 - 25.08.2019 07:00:00 (CEST)Socoa, France (7600): wind speed & gusts: 19.08.2019 07:00:00 - 25.08.2019 07:00:00 (CEST)Socoa, France (7600): wind direction: 19.08.2019 07:00:00 - 25.08.2019 07:00:00 (CEST)Socoa, France (7600): reduced air pressure: 19.08.2019 07:00:00 - 25.08.2019 07:00:00 (CEST)Socoa, France (7600): visibility: 19.08.2019 07:00:00 - 25.08.2019 07:00:00 (CEST)Socoa, France (7600): precipitation: 19.08.2019 07:00:00 - 25.08.2019 07:00:00 (CEST)
Date & Time tt [°C] td [°C] ff [km/h] ff [kn] fx [km/h] fx [kn] dd ppp [hPa] vv [km] rr [mm]
25.08.2019 07:00:00 20,3 18,6 5 3 9 5 S 1018,6 - 0,0
25.08.2019 06:00:00 20,4 18,7 4 2 9 5 S 1018,7 - 0,0
25.08.2019 05:00:00 20,5 18,6 6 4 11 6 SSW 1018,9 - 0,0
25.08.2019 04:00:00 20,6 18,5 10 6 14 8 NW 1019,0 - 0,0
25.08.2019 03:00:00 20,7 18,3 9 5 17 9 SSW 1019,2 - 0,0
25.08.2019 02:00:00 20,7 18,5 9 5 17 9 W 1019,3 - 0,0
25.08.2019 01:00:00 21,0 19,1 10 5 26 14 WSW 1019,6 - 0,0
25.08.2019 00:00:00 21,6 18,6 17 9 27 15 W 1019,6 - 0,0
24.08.2019 23:00:00 21,7 18,7 18 10 27 14 W 1019,4 18 0,0
24.08.2019 22:00:00 22,2 19,2 20 11 27 14 W 1019,1 - 0,0
24.08.2019 21:00:00 22,2 19,2 21 11 31 17 WNW 1018,7 - 0,0
24.08.2019 20:00:00 22,4 19,2 23 12 30 16 W 1018,5 15 0,0
24.08.2019 19:00:00 23,0 19,8 26 14 32 17 W 1018,4 - 0,0
24.08.2019 18:00:00 23,8 20,3 27 14 34 18 W 1018,4 - 0,0
24.08.2019 17:00:00 25,5 21,2 25 14 32 17 W 1018,1 - 0,0
24.08.2019 16:00:00 25,3 21,0 23 12 28 15 WNW 1018,1 - 0,0
24.08.2019 15:00:00 25,5 21,2 19 10 28 15 WNW 1018,1 - 0,0
24.08.2019 14:00:00 26,1 21,7 18 10 25 13 NW 1018,0 - 0,0
24.08.2019 13:00:00 27,1 21,6 16 9 23 13 WNW 1017,8 - 0,0
24.08.2019 12:00:00 28,3 17,2 3 2 11 6 WNW 1017,4 - 0,0
24.08.2019 11:00:00 26,3 20,6 10 5 16 9 W 1017,2 20 0,0
24.08.2019 10:00:00 24,8 18,3 13 7 20 11 W 1016,9 - 0,0
24.08.2019 09:00:00 24,5 18,7 7 4 21 11 SSW 1016,3 - 0,0
24.08.2019 08:00:00 21,2 15,5 6 3 16 9 SSW 1016,2 - 0,0
24.08.2019 07:00:00 20,2 16,6 10 6 22 12 W 1016,2 - 0,0
24.08.2019 06:00:00 21,5 17,9 7 4 29 16 W 1016,0 - 0,0
24.08.2019 05:00:00 18,5 15,7 11 6 20 11 S 1016,2 20 0,0
24.08.2019 04:00:00 18,4 16,7 3 2 9 5 WNW 1016,5 - 0,0
24.08.2019 03:00:00 18,7 17,0 4 2 10 5 NNW 1016,5 - 0,0
24.08.2019 02:00:00 18,7 16,5 3 2 13 7 WNW 1016,8 20 0,0
24.08.2019 01:00:00 19,8 17,9 7 4 13 7 SSE 1016,6 - 0,0
24.08.2019 00:00:00 20,3 17,3 3 2 6 4 S 1016,7 - 0,0
23.08.2019 23:00:00 22,2 17,8 6 3 15 8 SSW 1016,7 - 0,0
23.08.2019 22:00:00 24,7 16,9 11 6 17 9 SE 1016,5 - 0,0
23.08.2019 21:00:00 26,5 17,0 16 9 30 16 SE 1016,1 - 0,0
23.08.2019 20:00:00 28,9 17,1 21 12 32 18 E 1016,1 - 0,0
23.08.2019 19:00:00 30,5 17,9 19 10 31 17 E 1016,4 - 0,0
23.08.2019 18:00:00 31,7 17,9 21 11 29 15 E 1016,5 - 0,0
23.08.2019 17:00:00 33,0 20,5 21 11 29 15 ENE 1016,8 - 0,0
23.08.2019 16:00:00 29,0 21,0 9 5 21 12 NE 1017,1 - 0,0
23.08.2019 15:00:00 27,3 20,4 5 3 13 7 N 1017,7 - 0,0
23.08.2019 14:00:00 26,6 19,2 5 3 9 5 NNW 1018,2 - 0,0
23.08.2019 13:00:00 25,0 18,0 6 3 10 5 N 1018,8 - 0,0
23.08.2019 12:00:00 23,3 16,3 5 3 9 5 NNW 1019,2 - 0,0
23.08.2019 11:00:00 22,7 15,0 4 2 10 5 N 1019,7 28 0,0
23.08.2019 10:00:00 20,4 14,1 3 1 13 7 ESE 1019,8 - 0,0
23.08.2019 09:00:00 16,8 13,7 6 4 13 7 ESE 1020,1 - 0,0
23.08.2019 08:00:00 14,5 12,4 10 5 14 7 S 1020,4 - 0,0
23.08.2019 07:00:00 14,2 12,4 6 4 14 8 SE 1020,0 - 0,0
23.08.2019 06:00:00 14,9 12,4 14 8 16 9 S 1020,3 - 0,0
23.08.2019 05:00:00 15,1 12,6 8 5 15 8 SSE 1020,3 18 0,0
23.08.2019 04:00:00 15,3 12,8 9 5 16 9 S 1020,8 - 0,0
23.08.2019 03:00:00 15,5 12,8 15 8 18 10 S 1020,9 - 0,0
23.08.2019 02:00:00 15,5 12,8 10 5 14 7 S 1021,6 18 0,0
23.08.2019 01:00:00 16,2 13,5 9 5 14 8 S 1021,9 - 0,0
23.08.2019 00:00:00 16,8 13,7 13 7 14 8 S 1022,3 - 0,0
22.08.2019 23:00:00 17,9 15,0 9 5 12 7 S 1022,5 28 0,0
22.08.2019 22:00:00 19,5 16,0 9 5 10 5 S 1022,5 - 0,0
22.08.2019 21:00:00 21,4 15,9 5 3 7 4 S 1022,0 - 0,0
22.08.2019 20:00:00 22,9 14,7 3 2 7 4 N 1021,7 25 0,0
22.08.2019 19:00:00 24,3 15,8 6 3 15 8 N 1021,9 - 0,0
22.08.2019 18:00:00 25,0 16,7 10 5 15 8 NNW 1022,2 - 0,0
22.08.2019 17:00:00 25,2 18,9 11 6 17 9 NNW 1022,5 28 0,0
22.08.2019 16:00:00 25,2 20,0 12 7 21 11 WNW 1023,0 - 0,0
22.08.2019 15:00:00 24,8 19,8 15 8 21 11 WNW 1023,5 - 0,0
22.08.2019 14:00:00 24,5 19,3 15 8 22 12 WNW 1023,8 28 0,0
22.08.2019 13:00:00 24,2 18,8 18 10 23 12 WNW 1024,2 - 0,0
22.08.2019 12:00:00 23,7 18,3 19 10 23 13 W 1024,2 - 0,0
22.08.2019 11:00:00 23,5 18,2 14 7 19 10 W 1023,9 28 0,0
22.08.2019 10:00:00 21,7 17,3 11 6 20 11 WSW 1023,8 - 0,0
22.08.2019 09:00:00 18,0 16,0 12 7 19 11 SSW 1023,7 - 0,2
22.08.2019 08:00:00 15,9 14,6 15 8 19 10 S 1023,2 - 0,0
22.08.2019 07:00:00 15,5 14,2 13 7 17 9 SSW 1023,0 - 0,0
22.08.2019 06:00:00 16,1 14,3 6 3 19 10 S 1022,6 - 0,0
22.08.2019 05:00:00 17,1 15,1 16 9 21 11 SSW 1022,3 20 0,0
22.08.2019 04:00:00 17,8 15,4 15 8 26 14 SW 1022,4 - 0,0
22.08.2019 03:00:00 18,3 15,9 17 9 25 13 SW 1022,6 - 0,0
22.08.2019 02:00:00 18,5 15,9 16 9 26 14 SW 1023,0 20 0,0
22.08.2019 01:00:00 18,7 15,9 17 9 24 13 SW 1023,4 - 0,0
22.08.2019 00:00:00 18,8 16,6 15 8 19 11 SW 1023,3 - 0,0
21.08.2019 23:00:00 20,0 17,0 6 3 13 7 SSW 1023,2 28 0,0
21.08.2019 22:00:00 21,4 17,8 7 4 29 16 NE 1022,9 - 0,0
21.08.2019 21:00:00 22,4 18,2 18 10 31 17 N 1022,2 - 0,0
21.08.2019 20:00:00 23,5 17,5 16 8 23 12 N 1021,5 - 0,0
21.08.2019 19:00:00 23,9 17,9 15 8 29 16 N 1021,2 - 0,0
21.08.2019 18:00:00 23,9 17,4 22 12 35 19 N 1021,0 - 0,0
21.08.2019 17:00:00 25,3 18,0 16 9 27 15 N 1021,1 24 0,0
21.08.2019 16:00:00 27,6 16,6 13 7 33 18 NE 1021,2 - 0,0
21.08.2019 15:00:00 26,9 15,9 19 11 32 17 NE 1021,8 - 0,0
21.08.2019 14:00:00 26,0 15,1 27 15 40 22 ENE 1022,0 - 0,0
21.08.2019 13:00:00 25,3 15,6 27 14 37 20 ENE 1022,3 - 0,0
21.08.2019 12:00:00 23,4 17,4 5 3 10 5 NNW 1022,8 - 0,0
21.08.2019 11:00:00 22,4 15,7 5 3 12 6 E 1022,9 30 0,0
21.08.2019 10:00:00 18,7 13,8 3 2 7 4 E 1023,4 - 0,0
21.08.2019 09:00:00 15,6 13,3 6 3 9 5 S 1023,6 - 0,0
21.08.2019 08:00:00 14,0 12,4 5 3 9 5 ESE 1023,2 - 0,0
21.08.2019 07:00:00 13,8 12,2 4 2 12 6 SSE 1023,2 - 0,0
21.08.2019 06:00:00 13,6 12,0 8 4 9 5 S 1023,5 - 0,0
21.08.2019 05:00:00 14,1 12,1 3 2 15 8 SSE 1024,0 20 0,0
21.08.2019 04:00:00 14,4 12,4 10 5 12 7 S 1024,2 - 0,0
21.08.2019 03:00:00 14,9 12,6 8 5 12 7 S 1024,7 - 0,0
21.08.2019 02:00:00 15,7 12,8 5 3 13 7 E 1025,2 20 0,0
21.08.2019 01:00:00 16,5 13,4 7 4 12 6 SE 1025,3 - 0,0
21.08.2019 00:00:00 18,0 13,9 8 4 16 9 S 1025,4 - 0,0
20.08.2019 23:00:00 19,7 14,5 13 7 39 21 E 1025,2 24 0,0
20.08.2019 22:00:00 20,2 14,6 25 13 34 19 NNE 1025,1 - 0,0
20.08.2019 21:00:00 20,8 14,2 23 13 31 17 NNE 1025,0 - 0,0
20.08.2019 20:00:00 20,9 14,1 22 12 29 16 NNE 1024,8 20 0,0
20.08.2019 19:00:00 22,2 14,1 20 11 27 14 N 1024,8 - 0,0
20.08.2019 18:00:00 22,4 15,5 19 11 25 14 NNE 1024,8 - 0,0
20.08.2019 17:00:00 22,4 15,0 14 8 24 13 N 1025,1 - 0,0
20.08.2019 16:00:00 23,0 15,6 11 6 21 12 NNW 1025,2 - 0,0
20.08.2019 15:00:00 22,7 15,0 13 7 21 11 N 1025,1 - 0,0
20.08.2019 14:00:00 22,3 15,9 10 6 16 9 N 1025,1 20 0,0
20.08.2019 13:00:00 21,1 15,6 8 5 13 7 N 1025,4 - 0,0
20.08.2019 12:00:00 20,1 15,5 7 4 12 7 NE 1025,0 - 0,0
20.08.2019 11:00:00 18,7 14,6 5 3 10 5 NE 1024,4 24 0,0
20.08.2019 10:00:00 17,2 15,0 5 3 9 5 NE 1024,1 - 0,0
20.08.2019 09:00:00 16,6 14,6 4 2 19 11 ESE 1023,4 - 0,0
20.08.2019 08:00:00 16,4 14,8 16 9 26 14 ESE 1022,6 - 0,0
20.08.2019 07:00:00 16,5 14,9 8 4 16 9 SSE 1022,0 - 0,0
20.08.2019 06:00:00 16,5 14,7 12 7 19 11 SE 1021,5 - 0,6
20.08.2019 05:00:00 16,4 14,2 10 6 17 9 E 1021,4 13 0,2
20.08.2019 04:00:00 16,9 14,9 2 1 13 7 E 1021,5 - 1,2
20.08.2019 03:00:00 17,2 14,8 11 6 20 11 E 1021,6 - 0,8
20.08.2019 02:00:00 17,7 15,5 9 5 14 7 S 1022,0 10 0,0
20.08.2019 01:00:00 17,7 14,4 9 5 19 11 ESE 1022,2 - 0,0
20.08.2019 00:00:00 18,2 15,6 8 4 22 12 ESE 1022,0 - 0,4
19.08.2019 23:00:00 19,6 15,3 15 8 36 20 E 1022,2 12 0,8
19.08.2019 22:00:00 19,9 14,9 23 13 33 18 NE 1021,9 - 0,0
19.08.2019 21:00:00 20,3 15,1 22 12 35 19 NNE 1021,5 - 0,0
19.08.2019 20:00:00 20,2 14,8 14 8 22 12 NE 1021,3 13 0,0
19.08.2019 19:00:00 20,2 14,8 11 6 22 12 NE 1021,0 - 0,0
19.08.2019 18:00:00 20,5 15,3 19 10 29 16 NNE 1021,1 - 0,0
19.08.2019 17:00:00 21,1 14,7 11 6 20 11 NE 1021,0 14 0,0
19.08.2019 16:00:00 22,2 14,1 10 5 21 12 E 1021,1 - 0,0
19.08.2019 15:00:00 22,5 14,3 12 6 22 12 E 1021,1 - 0,0
19.08.2019 14:00:00 23,5 15,0 8 5 24 13 ENE 1021,0 - 0,0
19.08.2019 13:00:00 23,5 14,8 13 7 25 14 ENE 1020,9 - 0,0
19.08.2019 12:00:00 21,6 14,3 16 8 26 14 E 1020,8 - 0,0
19.08.2019 11:00:00 20,3 15,3 12 7 20 11 E 1020,8 - 0,0
19.08.2019 10:00:00 18,8 15,5 4 2 7 4 ENE 1020,6 - 0,0
19.08.2019 09:00:00 17,7 16,2 3 1 9 5 S 1020,5 - 0,0
19.08.2019 08:00:00 17,1 16,0 7 4 10 5 S 1020,4 10 0,0
19.08.2019 07:00:00 17,0 15,7 9 5 13 7 S 1020,6 - 0,0

tt = temperature
td = dewpoint
ff = wind speed
fx = gusts
dd = wind direction
ppp = reduced air pressure
vv = visibility
rr = precipitation

Next stations